Time,TemperatureF,DewpointF,PressureIn,WindDirection,WindDirectionDegrees,WindSpeedMPH,WindSpeedGustMPH,Humidity,HourlyPrecipIn,Conditions,Clouds,dailyrainin,SoftwareType,DateUTC
2013-04-10 00:00:00,70.1,51.1,29.85,West,266,1.0,1.0,51,0.00,,,0.00,Wunderground v.1.15,2013-04-10 04:00:00,
2013-04-10 00:05:00,70.3,50.2,29.85,West,277,1.0,6.0,49,0.00,,,0.00,Wunderground v.1.15,2013-04-10 04:05:00,
2013-04-10 00:10:00,70.3,50.8,29.85,West,276,1.0,1.0,50,0.00,,,0.00,Wunderground v.1.15,2013-04-10 04:10:00,
2013-04-10 00:15:00,70.3,50.2,29.85,West,277,1.0,1.0,49,0.00,,,0.00,Wunderground v.1.15,2013-04-10 04:15:00,
2013-04-10 00:25:00,70.6,50.0,29.85,WSW,243,0.0,0.0,48,0.00,,,0.00,Wunderground v.1.15,2013-04-10 04:25:00,
2013-04-10 00:30:00,70.3,50.2,29.85,WSW,250,0.0,0.0,49,0.00,,,0.00,Wunderground v.1.15,2013-04-10 04:30:00,
2013-04-10 00:40:00,69.5,50.0,29.85,WSW,250,0.0,0.0,50,0.00,,,0.00,Wunderground v.1.15,2013-04-10 04:40:00,
2013-04-10 00:50:00,69.3,49.9,29.85,WSW,250,0.0,0.0,50,0.00,,,0.00,Wunderground v.1.15,2013-04-10 04:50:00,
2013-04-10 00:55:00,69.2,50.3,29.85,WSW,250,0.0,0.0,51,0.00,,,0.00,Wunderground v.1.15,2013-04-10 04:55:00,
2013-04-10 01:05:00,68.7,49.8,29.85,WNW,295,1.0,1.0,51,0.00,,,0.00,Wunderground v.1.15,2013-04-10 05:05:00,
2013-04-10 01:15:00,69.0,49.6,29.85,WSW,243,1.0,3.0,50,0.00,,,0.00,Wunderground v.1.15,2013-04-10 05:15:00,
2013-04-10 01:25:00,69.5,49.5,29.86,WNW,289,1.0,3.0,49,0.00,,,0.00,Wunderground v.1.15,2013-04-10 05:25:00,
2013-04-10 01:35:00,69.6,49.6,29.86,West,281,1.0,1.0,49,0.00,,,0.00,Wunderground v.1.15,2013-04-10 05:35:00,
2013-04-10 01:45:00,69.2,49.8,29.85,West,272,1.0,1.0,50,0.00,,,0.00,Wunderground v.1.15,2013-04-10 05:45:00,
2013-04-10 01:50:00,69.2,49.8,29.85,West,262,1.0,1.0,50,0.00,,,0.00,Wunderground v.1.15,2013-04-10 05:50:00,
2013-04-10 01:55:00,69.2,49.8,29.85,WSW,257,1.0,1.0,50,0.00,,,0.00,Wunderground v.1.15,2013-04-10 05:55:00,
2013-04-10 02:05:00,69.5,49.5,29.85,NW,312,1.0,2.0,49,0.00,,,0.00,Wunderground v.1.15,2013-04-10 06:05:00,
2013-04-10 02:15:00,70.0,50.0,29.85,SW,229,1.0,4.0,49,0.00,,,0.00,Wunderground v.1.15,2013-04-10 06:15:00,
2013-04-10 02:25:00,70.2,49.6,29.85,WNW,292,2.0,2.0,48,0.00,,,0.00,Wunderground v.1.15,2013-04-10 06:25:00,
2013-04-10 02:35:00,70.3,50.2,29.85,WNW,296,1.0,2.0,49,0.00,,,0.00,Wunderground v.1.15,2013-04-10 06:35:00,
2013-04-10 02:40:00,70.4,49.8,29.85,West,280,1.0,1.0,48,0.00,,,0.00,Wunderground v.1.15,2013-04-10 06:40:00,
2013-04-10 02:50:00,71.3,50.6,29.85,SW,226,3.0,4.0,48,0.00,,,0.00,Wunderground v.1.15,2013-04-10 06:50:00,
2013-04-10 03:00:00,71.5,50.8,29.85,West,266,3.0,5.0,48,0.00,,,0.00,Wunderground v.1.15,2013-04-10 07:00:00,
2013-04-10 03:05:00,71.8,50.5,29.85,WSW,247,4.0,5.0,47,0.00,,,0.00,Wunderground v.1.15,2013-04-10 07:05:00,
2013-04-10 03:15:00,71.9,50.6,29.84,West,266,5.0,5.0,47,0.00,,,0.00,Wunderground v.1.15,2013-04-10 07:15:00,
2013-04-10 03:25:00,71.9,51.1,29.85,SSW,206,4.0,7.0,48,0.00,,,0.00,Wunderground v.1.15,2013-04-10 07:25:00,
2013-04-10 03:35:00,71.6,50.9,29.86,SW,224,3.0,5.0,48,0.00,,,0.00,Wunderground v.1.15,2013-04-10 07:35:00,
2013-04-10 03:45:00,71.7,51.5,29.86,NNE,14,6.0,6.0,49,0.00,,,0.00,Wunderground v.1.15,2013-04-10 07:45:00,
2013-04-10 03:55:00,71.7,51.5,29.86,SW,232,3.0,5.0,49,0.00,,,0.00,Wunderground v.1.15,2013-04-10 07:55:00,
2013-04-10 04:05:00,71.5,51.3,29.86,SW,220,2.0,3.0,49,0.00,,,0.00,Wunderground v.1.15,2013-04-10 08:05:00,
2013-04-10 04:15:00,71.3,51.7,29.86,NE,56,2.0,2.0,50,0.00,,,0.00,Wunderground v.1.15,2013-04-10 08:15:00,
2013-04-10 04:25:00,71.2,51.6,29.86,WNW,283,2.0,4.0,50,0.00,,,0.00,Wunderground v.1.15,2013-04-10 08:25:00,
2013-04-10 04:35:00,71.1,51.5,29.86,West,263,1.0,4.0,50,0.00,,,0.00,Wunderground v.1.15,2013-04-10 08:35:00,
2013-04-10 04:45:00,70.4,51.9,29.87,WSW,241,2.0,3.0,52,0.00,,,0.00,Wunderground v.1.15,2013-04-10 08:45:00,
2013-04-10 04:55:00,70.0,51.6,29.87,SSW,201,1.0,3.0,52,0.00,,,0.00,Wunderground v.1.15,2013-04-10 08:55:00,
2013-04-10 05:00:00,70.1,51.7,29.88,WSW,238,2.0,2.0,52,0.00,,,0.00,Wunderground v.1.15,2013-04-10 09:00:00,
2013-04-10 05:05:00,70.1,52.2,29.88,SW,231,2.0,3.0,53,0.00,,,0.00,Wunderground v.1.15,2013-04-10 09:05:00,
2013-04-10 05:15:00,69.8,51.9,29.88,WSW,237,3.0,6.0,53,0.00,,,0.00,Wunderground v.1.15,2013-04-10 09:15:00,
2013-04-10 05:25:00,69.5,52.1,29.88,NW,324,3.0,5.0,54,0.00,,,0.00,Wunderground v.1.15,2013-04-10 09:25:00,
2013-04-10 05:30:00,69.6,52.2,29.88,NW,308,3.0,4.0,54,0.00,,,0.00,Wunderground v.1.15,2013-04-10 09:30:00,
2013-04-10 05:40:00,69.5,52.1,29.88,WSW,253,3.0,3.0,54,0.00,,,0.00,Wunderground v.1.15,2013-04-10 09:40:00,
2013-04-10 05:50:00,69.1,52.2,29.88,SW,236,3.0,3.0,55,0.00,,,0.00,Wunderground v.1.15,2013-04-10 09:50:00,
2013-04-10 05:55:00,69.0,52.2,29.88,South,182,2.0,3.0,55,0.00,,,0.00,Wunderground v.1.15,2013-04-10 09:55:00,
2013-04-10 06:05:00,69.0,52.6,29.88,SW,216,2.0,5.0,56,0.00,,,0.00,Wunderground v.1.15,2013-04-10 10:05:00,
2013-04-10 06:15:00,68.9,52.6,29.88,NW,310,1.0,2.0,56,0.00,,,0.00,Wunderground v.1.15,2013-04-10 10:15:00,
2013-04-10 06:25:00,68.4,52.6,29.88,WSW,253,1.0,1.0,57,0.00,,,0.00,Wunderground v.1.15,2013-04-10 10:25:00,
2013-04-10 06:35:00,68.1,52.8,29.88,West,268,1.0,3.0,58,0.00,,,0.00,Wunderground v.1.15,2013-04-10 10:35:00,
2013-04-10 06:45:00,67.9,52.6,29.88,WSW,247,2.0,4.0,58,0.00,,,0.00,Wunderground v.1.15,2013-04-10 10:45:00,
2013-04-10 06:50:00,67.7,52.9,29.88,West,263,2.0,2.0,59,0.00,,,0.00,Wunderground v.1.15,2013-04-10 10:50:00,
2013-04-10 07:00:00,67.7,53.3,29.88,SW,233,2.0,2.0,60,0.00,,,0.00,Wunderground v.1.15,2013-04-10 11:00:00,
2013-04-10 07:05:00,67.9,53.5,29.88,WSW,241,2.0,3.0,60,0.00,,,0.00,Wunderground v.1.15,2013-04-10 11:05:00,
2013-04-10 07:15:00,68.0,53.6,29.88,West,262,3.0,5.0,60,0.00,,,0.00,Wunderground v.1.15,2013-04-10 11:15:00,
2013-04-10 07:25:00,68.3,53.9,29.88,SW,229,3.0,3.0,60,0.00,,,0.00,Wunderground v.1.15,2013-04-10 11:25:00,
2013-04-10 07:35:00,68.4,54.0,29.88,West,278,2.0,4.0,60,0.00,,,0.00,Wunderground v.1.15,2013-04-10 11:35:00,
2013-04-10 07:45:00,68.6,54.2,29.89,WNW,289,2.0,3.0,60,0.00,,,0.00,Wunderground v.1.15,2013-04-10 11:45:00,
2013-04-10 07:55:00,69.0,54.5,29.89,WNW,287,2.0,2.0,60,0.00,,,0.00,Wunderground v.1.15,2013-04-10 11:55:00,
2013-04-10 08:05:00,69.3,54.8,29.89,SSW,213,1.0,2.0,60,0.00,,,0.00,Wunderground v.1.15,2013-04-10 12:05:00,
2013-04-10 08:15:00,69.7,54.7,29.89,SW,221,2.0,6.0,59,0.00,,,0.00,Wunderground v.1.15,2013-04-10 12:15:00,
2013-04-10 08:25:00,70.6,54.6,29.89,SW,214,5.0,7.0,57,0.00,,,0.00,Wunderground v.1.15,2013-04-10 12:25:00,
2013-04-10 08:35:00,71.3,55.3,29.89,SW,216,4.0,6.0,57,0.00,,,0.00,Wunderground v.1.15,2013-04-10 12:35:00,
2013-04-10 08:45:00,71.9,55.3,29.89,SW,224,4.0,4.0,56,0.00,,,0.00,Wunderground v.1.15,2013-04-10 12:45:00,
2013-04-10 08:55:00,72.6,56.0,29.89,SW,216,4.0,4.0,56,0.00,,,0.00,Wunderground v.1.15,2013-04-10 12:55:00,
2013-04-10 09:05:00,73.3,55.6,29.89,SW,230,4.0,7.0,54,0.00,,,0.00,Wunderground v.1.15,2013-04-10 13:05:00,
2013-04-10 09:15:00,74.2,56.0,29.88,SW,231,5.0,6.0,53,0.00,,,0.00,Wunderground v.1.15,2013-04-10 13:15:00,
2013-04-10 09:25:00,74.9,56.6,29.88,WSW,237,6.0,7.0,53,0.00,,,0.00,Wunderground v.1.15,2013-04-10 13:25:00,
2013-04-10 09:30:00,75.3,56.5,29.88,SSW,211,5.0,6.0,52,0.00,,,0.00,Wunderground v.1.15,2013-04-10 13:30:00,
2013-04-10 09:40:00,76.2,56.7,29.88,WSW,258,6.0,6.0,51,0.00,,,0.00,Wunderground v.1.15,2013-04-10 13:40:00,
2013-04-10 09:50:00,76.9,56.8,29.88,WSW,251,9.0,12.0,50,0.00,,,0.00,Wunderground v.1.15,2013-04-10 13:50:00,
2013-04-10 10:00:00,77.1,57.0,29.88,SSW,206,8.0,8.0,50,0.00,,,0.00,Wunderground v.1.15,2013-04-10 14:00:00,
2013-04-10 10:05:00,77.5,56.8,29.87,WNW,284,9.0,9.0,49,0.00,,,0.00,Wunderground v.1.15,2013-04-10 14:05:00,
2013-04-10 10:15:00,78.3,57.6,29.88,West,264,6.0,8.0,49,0.00,,,0.00,Wunderground v.1.15,2013-04-10 14:15:00,
2013-04-10 10:20:00,78.8,57.4,29.88,West,276,5.0,5.0,48,0.00,,,0.00,Wunderground v.1.15,2013-04-10 14:20:00,
2013-04-10 10:30:00,79.6,57.6,29.87,SSW,205,8.0,8.0,47,0.00,,,0.00,Wunderground v.1.15,2013-04-10 14:30:00,
2013-04-10 10:40:00,80.1,58.0,29.87,SSW,208,7.0,7.0,47,0.00,,,0.00,Wunderground v.1.15,2013-04-10 14:40:00,
2013-04-10 10:45:00,80.6,57.3,29.87,SW,219,8.0,19.0,45,0.00,,,0.00,Wunderground v.1.15,2013-04-10 14:45:00,
2013-04-10 10:50:00,80.2,56.9,29.87,SW,231,11.0,18.0,45,0.00,,,0.00,Wunderground v.1.15,2013-04-10 14:50:00,
2013-04-10 11:00:00,80.7,58.0,29.87,SSW,195,9.0,9.0,46,0.00,,,0.00,Wunderground v.1.15,2013-04-10 15:00:00,
2013-04-10 11:05:00,81.5,58.1,29.87,West,261,6.0,9.0,45,0.00,,,0.00,Wunderground v.1.15,2013-04-10 15:05:00,
2013-04-10 11:15:00,81.7,57.7,29.87,WNW,294,9.0,10.0,44,0.00,,,0.00,Wunderground v.1.15,2013-04-10 15:15:00,
2013-04-10 11:20:00,81.4,58.0,29.87,SSW,195,9.0,9.0,45,0.00,,,0.00,Wunderground v.1.15,2013-04-10 15:20:00,
2013-04-10 11:30:00,81.9,57.8,29.87,NW,309,9.0,9.0,44,0.00,,,0.00,Wunderground v.1.15,2013-04-10 15:30:00,
2013-04-10 11:35:00,81.8,57.1,29.87,NW,325,10.0,10.0,43,0.00,,,0.00,Wunderground v.1.15,2013-04-10 15:35:00,
2013-04-10 11:45:00,82.7,57.9,29.86,WSW,238,8.0,10.0,43,0.00,,,0.00,Wunderground v.1.15,2013-04-10 15:45:00,
2013-04-10 11:55:00,83.2,57.7,29.87,NW,319,8.0,8.0,42,0.00,,,0.00,Wunderground v.1.15,2013-04-10 15:55:00,
2013-04-10 12:05:00,83.0,58.2,29.86,SSW,194,8.0,10.0,43,0.00,,,0.00,Wunderground v.1.15,2013-04-10 16:05:00,
2013-04-10 12:15:00,83.7,58.2,29.86,WSW,239,8.0,12.0,42,0.00,,,0.00,Wunderground v.1.15,2013-04-10 16:15:00,
2013-04-10 12:20:00,84.0,58.4,29.86,WSW,256,7.0,12.0,42,0.00,,,0.00,Wunderground v.1.15,2013-04-10 16:20:00,
2013-04-10 12:30:00,84.2,58.6,29.85,SW,222,10.0,10.0,42,0.00,,,0.00,Wunderground v.1.15,2013-04-10 16:30:00,
2013-04-10 12:40:00,84.6,57.6,29.85,SSW,211,8.0,8.0,40,0.00,,,0.00,Wunderground v.1.15,2013-04-10 16:40:00,
2013-04-10 12:50:00,85.5,59.1,29.84,SW,221,7.0,7.0,41,0.00,,,0.00,Wunderground v.1.15,2013-04-10 16:50:00,
2013-04-10 13:00:00,85.3,58.2,29.84,SW,234,6.0,7.0,40,0.00,,,0.00,Wunderground v.1.15,2013-04-10 17:00:00,
2013-04-10 13:05:00,86.3,58.4,29.84,SE,141,8.0,8.0,39,0.00,,,0.00,Wunderground v.1.15,2013-04-10 17:05:00,
2013-04-10 13:15:00,86.9,59.7,29.83,SSW,206,9.0,10.0,40,0.00,,,0.00,Wunderground v.1.15,2013-04-10 17:15:00,
2013-04-10 13:25:00,87.3,59.3,29.83,SSW,204,8.0,9.0,39,0.00,,,0.00,Wunderground v.1.15,2013-04-10 17:25:00,
2013-04-10 13:35:00,86.7,57.3,29.83,SW,220,9.0,9.0,37,0.00,,,0.00,Wunderground v.1.15,2013-04-10 17:35:00,
2013-04-10 13:45:00,84.8,56.4,29.83,SW,223,8.0,14.0,38,0.00,,,0.00,Wunderground v.1.15,2013-04-10 17:45:00,
2013-04-10 13:55:00,85.2,57.4,29.82,SW,231,5.0,7.0,39,0.00,,,0.00,Wunderground v.1.15,2013-04-10 17:55:00,
2013-04-10 14:00:00,87.1,56.9,29.83,SSW,213,5.0,11.0,36,0.00,,,0.00,Wunderground v.1.15,2013-04-10 18:00:00,
2013-04-10 14:05:00,87.7,58.2,29.82,SSW,192,8.0,11.0,37,0.00,,,0.00,Wunderground v.1.15,2013-04-10 18:05:00,
2013-04-10 14:15:00,87.8,55.9,29.82,WSW,237,9.0,12.0,34,0.00,,,0.00,Wunderground v.1.15,2013-04-10 18:15:00,
2013-04-10 14:25:00,86.7,55.8,29.81,SW,226,8.0,9.0,35,0.00,,,0.00,Wunderground v.1.15,2013-04-10 18:25:00,
2013-04-10 14:30:00,86.3,56.2,29.81,SSW,208,7.0,7.0,36,0.00,,,0.00,Wunderground v.1.15,2013-04-10 18:30:00,
2013-04-10 14:40:00,86.1,56.0,29.81,West,278,5.0,9.0,36,0.00,,,0.00,Wunderground v.1.15,2013-04-10 18:40:00,
2013-04-10 14:50:00,86.1,54.5,29.80,SW,218,8.0,8.0,34,0.00,,,0.00,Wunderground v.1.15,2013-04-10 18:50:00,
2013-04-10 14:55:00,86.0,54.4,29.80,South,189,7.0,8.0,34,0.00,,,0.00,Wunderground v.1.15,2013-04-10 18:55:00,
2013-04-10 15:05:00,87.9,56.0,29.79,SW,232,6.0,7.0,34,0.00,,,0.00,Wunderground v.1.15,2013-04-10 19:05:00,
2013-04-10 15:15:00,88.3,56.4,29.79,SSW,209,7.0,7.0,34,0.00,,,0.00,Wunderground v.1.15,2013-04-10 19:15:00,
2013-04-10 15:25:00,87.9,56.0,29.78,SSW,204,6.0,9.0,34,0.00,,,0.00,Wunderground v.1.15,2013-04-10 19:25:00,
2013-04-10 15:40:00,87.3,54.7,29.78,SW,216,8.0,8.0,33,0.00,,,0.00,Wunderground v.1.15,2013-04-10 19:40:00,
2013-04-10 15:50:00,87.9,54.4,29.78,WSW,242,8.0,9.0,32,0.00,,,0.00,Wunderground v.1.15,2013-04-10 19:50:00,
2013-04-10 15:55:00,87.8,54.3,29.78,SSW,192,8.0,9.0,32,0.00,,,0.00,Wunderground v.1.15,2013-04-10 19:55:00,
2013-04-10 16:05:00,86.9,55.2,29.78,SW,217,6.0,7.0,34,0.00,,,0.00,Wunderground v.1.15,2013-04-10 20:05:00,
2013-04-10 16:15:00,87.0,54.4,29.78,WSW,237,6.0,11.0,33,0.00,,,0.00,Wunderground v.1.15,2013-04-10 20:15:00,
2013-04-10 16:25:00,86.8,53.4,29.77,WSW,241,6.0,6.0,32,0.00,,,0.00,Wunderground v.1.15,2013-04-10 20:25:00,
2013-04-10 16:35:00,86.5,53.1,29.76,West,260,4.0,6.0,32,0.00,,,0.00,Wunderground v.1.15,2013-04-10 20:35:00,
2013-04-10 16:45:00,86.8,54.2,29.76,SW,233,6.0,8.0,33,0.00,,,0.00,Wunderground v.1.15,2013-04-10 20:45:00,
2013-04-10 16:55:00,86.7,54.2,29.75,WSW,241,7.0,10.0,33,0.00,,,0.00,Wunderground v.1.15,2013-04-10 20:55:00,
2013-04-10 17:05:00,86.8,54.2,29.75,WSW,239,7.0,7.0,33,0.00,,,0.00,Wunderground v.1.15,2013-04-10 21:05:00,
2013-04-10 17:15:00,86.5,53.1,29.74,WSW,239,6.0,7.0,32,0.00,,,0.00,Wunderground v.1.15,2013-04-10 21:15:00,
2013-04-10 17:25:00,86.1,53.6,29.73,SW,231,7.0,10.0,33,0.00,,,0.00,Wunderground v.1.15,2013-04-10 21:25:00,
2013-04-10 17:30:00,86.0,52.7,29.73,SSW,210,7.0,9.0,32,0.00,,,0.00,Wunderground v.1.15,2013-04-10 21:30:00,
2013-04-10 17:40:00,86.1,52.8,29.73,SW,227,6.0,6.0,32,0.00,,,0.00,Wunderground v.1.15,2013-04-10 21:40:00,
2013-04-10 17:50:00,86.1,52.8,29.73,SSW,199,6.0,6.0,32,0.00,,,0.00,Wunderground v.1.15,2013-04-10 21:50:00,
2013-04-10 17:55:00,86.0,53.5,29.73,WSW,258,6.0,6.0,33,0.00,,,0.00,Wunderground v.1.15,2013-04-10 21:55:00,
2013-04-10 18:05:00,85.7,52.4,29.73,WSW,247,6.0,10.0,32,0.00,,,0.00,Wunderground v.1.15,2013-04-10 22:05:00,
2013-04-10 18:15:00,85.7,52.4,29.73,SSW,196,8.0,9.0,32,0.00,,,0.00,Wunderground v.1.15,2013-04-10 22:15:00,
2013-04-10 18:25:00,85.7,52.4,29.73,SSW,207,5.0,7.0,32,0.00,,,0.00,Wunderground v.1.15,2013-04-10 22:25:00,
2013-04-10 18:35:00,85.0,52.7,29.73,SSW,207,6.0,8.0,33,0.00,,,0.00,Wunderground v.1.15,2013-04-10 22:35:00,
2013-04-10 18:45:00,84.3,52.1,29.73,SW,222,7.0,11.0,33,0.00,,,0.00,Wunderground v.1.15,2013-04-10 22:45:00,
2013-04-10 18:55:00,84.0,51.8,29.73,SW,223,8.0,10.0,33,0.00,,,0.00,Wunderground v.1.15,2013-04-10 22:55:00,
2013-04-10 19:05:00,83.6,51.5,29.72,SW,222,7.0,7.0,33,0.00,,,0.00,Wunderground v.1.15,2013-04-10 23:05:00,
2013-04-10 19:15:00,83.3,52.0,29.72,SSW,195,5.0,7.0,34,0.00,,,0.00,Wunderground v.1.15,2013-04-10 23:15:00,
2013-04-10 19:25:00,82.8,51.6,29.72,WSW,243,4.0,6.0,34,0.00,,,0.00,Wunderground v.1.15,2013-04-10 23:25:00,
2013-04-10 19:35:00,82.3,51.9,29.73,SW,221,4.0,4.0,35,0.00,,,0.00,Wunderground v.1.15,2013-04-10 23:35:00,
2013-04-10 19:45:00,81.9,51.6,29.74,SW,229,5.0,6.0,35,0.00,,,0.00,Wunderground v.1.15,2013-04-10 23:45:00,
2013-04-10 19:55:00,81.8,51.5,29.73,SW,217,4.0,6.0,35,0.00,,,0.00,Wunderground v.1.15,2013-04-10 23:55:00,
2013-04-10 20:00:00,81.8,52.2,29.73,WSW,238,4.0,4.0,36,0.00,,,0.00,Wunderground v.1.15,2013-04-11 00:00:00,
2013-04-10 20:05:00,81.7,51.4,29.73,WSW,249,5.0,5.0,35,0.00,,,0.00,Wunderground v.1.15,2013-04-11 00:05:00,
2013-04-10 20:15:00,81.4,51.9,29.73,SW,219,3.0,4.0,36,0.00,,,0.00,Wunderground v.1.15,2013-04-11 00:15:00,
2013-04-10 20:25:00,80.9,52.2,29.73,West,262,3.0,3.0,37,0.00,,,0.00,Wunderground v.1.15,2013-04-11 00:25:00,
2013-04-10 20:35:00,80.1,52.2,29.74,WSW,240,3.0,3.0,38,0.00,,,0.00,Wunderground v.1.15,2013-04-11 00:35:00,
2013-04-10 20:40:00,79.8,51.9,29.74,WNW,283,3.0,3.0,38,0.00,,,0.00,Wunderground v.1.15,2013-04-11 00:40:00,
2013-04-10 20:50:00,79.4,52.3,29.74,West,260,2.0,2.0,39,0.00,,,0.00,Wunderground v.1.15,2013-04-11 00:50:00,
2013-04-10 21:00:00,78.9,52.5,29.75,WNW,298,2.0,2.0,40,0.00,,,0.00,Wunderground v.1.15,2013-04-11 01:00:00,
2013-04-10 21:05:00,78.7,52.3,29.75,West,264,1.0,2.0,40,0.00,,,0.00,Wunderground v.1.15,2013-04-11 01:05:00,
2013-04-10 21:15:00,78.4,52.1,29.75,WNW,290,2.0,2.0,40,0.00,,,0.00,Wunderground v.1.15,2013-04-11 01:15:00,
2013-04-10 21:25:00,77.9,52.3,29.76,WNW,291,2.0,3.0,41,0.00,,,0.00,Wunderground v.1.15,2013-04-11 01:25:00,
2013-04-10 21:30:00,77.7,52.1,29.75,WNW,291,1.0,1.0,41,0.00,,,0.00,Wunderground v.1.15,2013-04-11 01:30:00,
2013-04-10 21:40:00,77.4,52.5,29.75,WNW,289,1.0,2.0,42,0.00,,,0.00,Wunderground v.1.15,2013-04-11 01:40:00,
2013-04-10 21:50:00,77.2,53.0,29.75,WNW,285,1.0,2.0,43,0.00,,,0.00,Wunderground v.1.15,2013-04-11 01:50:00,
2013-04-10 21:55:00,77.0,52.8,29.75,WNW,288,1.0,2.0,43,0.00,,,0.00,Wunderground v.1.15,2013-04-11 01:55:00,
2013-04-10 22:05:00,76.7,53.1,29.76,WNW,289,1.0,2.0,44,0.00,,,0.00,Wunderground v.1.15,2013-04-11 02:05:00,
2013-04-10 22:15:00,76.5,53.0,29.76,WNW,300,1.0,1.0,44,0.00,,,0.00,Wunderground v.1.15,2013-04-11 02:15:00,
2013-04-10 22:25:00,76.2,52.7,29.77,WNW,300,1.0,1.0,44,0.00,,,0.00,Wunderground v.1.15,2013-04-11 02:25:00,
2013-04-10 22:35:00,75.9,53.0,29.77,WNW,300,1.0,1.0,45,0.00,,,0.00,Wunderground v.1.15,2013-04-11 02:35:00,
2013-04-10 22:45:00,75.7,52.8,29.77,WNW,300,1.0,1.0,45,0.00,,,0.00,Wunderground v.1.15,2013-04-11 02:45:00,
2013-04-10 22:50:00,75.7,53.4,29.78,WNW,300,1.0,2.0,46,0.00,,,0.00,Wunderground v.1.15,2013-04-11 02:50:00,
2013-04-10 23:00:00,74.3,55.5,29.83,NW,312,8.0,8.0,52,0.00,,,0.00,Wunderground v.1.15,2013-04-11 03:00:00,
2013-04-10 23:05:00,72.4,55.3,29.84,WSW,251,9.0,9.0,55,0.00,,,0.00,Wunderground v.1.15,2013-04-11 03:05:00,
2013-04-10 23:15:00,70.3,53.9,29.84,NNE,24,7.0,8.0,56,0.00,,,0.00,Wunderground v.1.15,2013-04-11 03:15:00,
2013-04-10 23:20:00,69.5,54.1,29.83,West,281,5.0,5.0,58,0.00,,,0.00,Wunderground v.1.15,2013-04-11 03:20:00,
2013-04-10 23:30:00,68.3,53.9,29.83,WSW,256,7.0,7.0,60,0.00,,,0.00,Wunderground v.1.15,2013-04-11 03:30:00,
2013-04-10 23:40:00,67.4,53.9,29.82,North,4,4.0,4.0,62,0.00,,,0.00,Wunderground v.1.15,2013-04-11 03:40:00,
2013-04-10 23:50:00,67.0,53.5,29.81,NNW,339,5.0,5.0,62,0.00,,,0.00,Wunderground v.1.15,2013-04-11 03:50:00,